User: anonymous   Login
Location: Unspecified
(0.0000°N, 0.0000°E)
Time: 08:36:01
(UTC+00:00)
Language:

SERT 2 - Orbit

View from above orbital plane
View from above orbital plane
View from above satellite
View from above satellite

Ground track
Ground track

The orbit data is extracted from the following two-line orbital elements,

1  4327U 70009A   18019.89023395 -.00000026 +00000-0 +21920-4 0  9997
2  4327 099.3002 107.3311 0004680 199.4825 285.4579 13.58473061376502
Epoch (UTC): 19 January 2018 21:21:56
Eccentricity: 0.0004680
inclination: 99.3002°
perigee height: 1038 km
apogee height: 1045 km
right ascension of ascending node: 107.3311°
argument of perigee: 199.4825°
revolutions per day: 13.58473061
mean anomaly at epoch: 285.4579°
orbit number at epoch: 37650

The dashed part of the orbit path shows where the satellite is in the earth's shadow,  

DLR